User: anonymous   Login
Location: Unspecified
(0.0000°N, 0.0000°E)
Time: 14:57:18
(UTC+00:00)
Language:

GONETS M 10 (M20) - Orbit

View from above orbital plane
View from above orbital plane
View from above satellite
View from above satellite

Ground track
Ground track

The orbit data is extracted from the following two-line orbital elements,

1 40063U 14036C   18267.71540777 +.00000037 +00000-0 +19442-3 0  9992
2 40063 082.5055 260.5398 0021132 172.1577 309.9639 12.42874483191825
Epoch (UTC): 24 September 2018 17:10:11
Eccentricity: 0.0021132
inclination: 82.5055°
perigee height: 1478 km
apogee height: 1511 km
right ascension of ascending node: 260.5398°
argument of perigee: 172.1577°
revolutions per day: 12.42874483
mean anomaly at epoch: 309.9639°
orbit number at epoch: 19182

The dashed part of the orbit path shows where the satellite is in the earth's shadow,  

DLR